SCP
1 1 1 1 1 1 0 0 0 1 1 1 1 1 1 1 1 1 1 1 2 2 1 2 2 2 1 1 1 1 1 1 0 0 1 1 1 1 1 1 1 1 1 1 1 1 1 1 2
1 1 1 1 1 0 0 0 1 1 1 2 1 1 1 1 1 1 1 2 2 2 1 2 2 2 1 1 1 1 1 1 0 0 1 1 1 1 1 1 1 1 1 1 1 1 1 1 1
0 0 1 1 0 0 0 1 1 1 2 2 2 1 1 1 1 1 1 2 2 2 2 2 2 2 1 1 1 1 1 1 1 1 1 1 1 1 1 1 1 1 1 1 1 1 1 1 1
0 0 0 0 0 0 1 1 2 2 2 2 2 1 1 1 1 1 2 2 2 2 1 2 2 2 2 1 1 1 1 1 1 1 1 1 1 1 1 1 1 1 1 1 1 1 1 1 1
0 0 0 0 0 0 1 2 2 2 2 2 2 1 1 1 2 2 2 2 2 1 1 1 2 2 2 1 1 1 1 1 1 1 1 1 1 1 1 1 1 1 1 1 1 1 1 1 1
0 0 0 0 0 1 1 2 2 2 2 2 2 2 1 2 2 3 3 2 2 2 1 1 2 2 2 2 1 1 1 1 1 1 1 1 1 1 1 2 1 1 1 1 1 1 1 1 1
0 0 0 0 0 1 1 1 2 2 2 2 2 2 2 3 3 3 3 3 2 2 1 1 1 1 2 2 2 2 1 1 1 1 1 1 1 1 1 1 1 1 1 1 1 1 1 1 1
0 0 0 0 0 1 1 1 2 2 2 2 2 2 3 3 4 4 4 3 3 2 1 1 1 1 1 2 2 2 1 1 1 0 0 0 1 1 1 1 1 1 1 1 1 1 1 1 1
0 0 0 0 0 1 1 2 2 2 3 3 2 2 3 4 5 5 4 3 2 2 2 1 1 1 1 1 1 1 1 1 1 0 0 0 0 0 0 0 1 1 1 1 1 1 1 1 1
0 0 0 0 0 1 1 2 2 3 4 3 2 3 4 6 7 6 4 3 3 2 2 2 1 1 1 1 1 1 1 0 0 0 0 0 0 0 0 0 1 1 1 1 1 1 1 1 1
0 0 0 0 1 1 1 1 2 4 4 3 3 4 6 7 7 6 4 3 2 2 2 1 1 1 1 1 1 1 0 0 0 0 0 0 0 0 0 1 1 1 1 1 1 1 1 1 1
0 0 0 0 1 1 1 1 2 3 3 3 3 4 6 8 8 7 5 4 3 2 2 2 2 2 1 1 1 1 1 1 0 0 0 1 1 1 1 0 0 0 1 1 1 1 1 1 1
0 0 0 0 1 1 0 1 2 4 4 4 4 4 5 7 8 8 7 5 4 3 2 2 2 2 2 2 1 1 1 1 1 1 1 1 1 1 0 0 0 0 1 1 1 1 0 1 1
0 0 0 0 0 0 0 1 3 4 5 5 5 4 4 5 7 8 9 9 7 4 4 4 4 3 3 2 2 2 2 2 1 1 1 1 1 1 0 0 0 0 0 0 1 1 0 1 1
0 0 0 0 0 0 0 1 3 4 5 6 5 4 5 6 7 9 12 14 11 6 5 6 6 5 4 3 3 3 3 2 2 2 2 1 1 1 1 0 1 1 1 1 1 1 0 1 1
0 0 0 0 0 0 0 1 3 4 5 5 4 5 6 6 7 9 14 17 13 7 6 6 6 5 4 4 3 4 4 3 3 2 2 1 1 1 1 1 1 1 1 1 1 1 1 1 1
0 0 0 0 0 0 1 2 3 4 5 4 4 5 6 6 6 8 13 15 11 6 5 5 5 6 5 5 5 4 4 4 3 2 2 2 2 1 1 1 1 1 1 1 1 1 1 1 1
0 0 0 0 0 0 1 3 4 5 5 4 4 5 5 4 4 5 9 10 7 4 5 6 6 7 6 6 6 5 4 3 2 1 1 2 2 2 2 2 2 1 1 1 1 1 1 1 1
0 0 0 0 0 1 2 4 5 6 6 4 4 4 4 3 3 4 6 7 5 4 5 7 8 7 6 7 7 5 3 1 1 1 1 1 1 2 2 2 2 2 2 2 1 1 1 1 1
0 0 0 0 1 2 3 4 5 5 5 4 3 3 3 3 3 4 5 5 4 4 5 6 6 6 5 6 6 4 2 1 1 1 1 1 1 1 1 1 2 2 2 2 2 2 2 2 2
0 0 0 1 1 2 3 3 4 4 4 3 3 3 3 3 3 4 4 4 3 3 3 3 4 4 4 5 4 3 1 1 1 1 1 1 1 1 1 1 2 2 2 2 2 2 3 3 3
0 0 0 1 1 1 1 2 3 3 3 3 3 3 3 3 4 4 5 4 3 3 3 3 3 4 4 5 4 2 1 1 1 2 2 2 2 2 1 2 2 2 3 3 3 3 4 4 4
0 0 0 0 0 0 0 1 1 2 2 2 2 2 2 3 4 5 5 4 3 3 4 4 5 5 5 5 4 3 2 2 2 2 3 3 3 3 2 2 2 3 3 4 4 4 5 5 5
0 0 0 0 0 0 0 0 1 1 2 2 3 3 3 4 4 5 5 4 4 4 4 5 6 7 7 7 6 4 3 3 3 3 3 3 4 4 3 3 2 2 3 4 4 4 5 5 5
0 0 0 0 0 0 0 1 1 1 2 4 5 6 5 5 5 5 5 4 4 4 5 6 7 8 8 8 7 5 4 4 3 3 3 3 4 4 4 3 2 2 2 3 4 4 4 4 4
0 0 0 0 0 0 1 1 1 2 4 6 8 9 9 9 9 8 7 6 5 4 5 6 7 8 9 8 8 6 6 5 4 4 3 3 3 4 4 4 3 2 2 2 2 2 2 2 2
0 0 0 0 0 0 1 1 2 3 6 8 10 11 13 13 12 10 9 7 5 5 5 6 6 6 8 8 8 7 6 6 5 4 3 3 3 3 3 3 3 3 2 2 2 1 1 1 2
0 0 0 0 0 0 1 1 2 4 6 8 9 10 12 12 10 9 7 6 5 4 5 5 4 4 6 7 7 7 6 5 5 5 4 3 3 3 3 3 3 3 3 3 2 1 1 1 1
0 0 0 0 0 0 1 1 2 3 4 5 6 7 8 8 7 6 5 5 4 3 4 4 4 4 4 6 6 6 5 5 5 5 4 4 3 3 3 3 4 4 3 3 3 2 2 2 1
0 0 0 0 0 0 0 1 2 3 3 3 4 5 6 6 6 5 5 5 4 3 3 4 4 4 4 5 5 5 5 5 5 4 4 4 4 3 3 3 4 4 4 4 3 3 2 2 1
Wind_Speed
5 3 2 2 5 5 1 2 3 2 3 3 7 10 8 5 4 5 4 12 13 11 8 11 13 13 12 11 10 10 10 10 10 10 9 9 9 8 8 7 7 7 7 7 6 6 6 6 6
3 3 2 3 5 2 3 1 4 4 6 6 8 9 8 6 7 10 7 11 14 12 8 9 14 13 12 11 10 10 10 10 10 9 9 8 8 8 7 7 6 6 6 6 6 6 6 5 6
2 2 2 3 2 3 3 2 5 4 6 5 5 5 6 6 9 8 10 15 12 10 7 10 14 13 12 12 11 10 10 10 9 9 9 8 7 7 6 6 5 5 5 5 5 5 5 5 5
1 2 3 3 2 4 5 5 5 4 4 5 7 6 5 4 7 11 17 16 13 9 7 10 15 13 12 11 11 10 10 9 9 9 8 8 7 7 6 5 5 5 6 5 5 5 4 4 5
3 3 3 2 3 3 2 3 5 6 4 7 8 7 5 4 14 18 17 16 14 10 7 9 14 13 12 11 10 10 9 9 8 8 7 7 6 6 5 5 6 6 6 5 5 4 4 4 4
3 4 2 2 4 2 1 3 6 9 8 8 9 7 3 8 14 15 16 14 13 12 8 8 13 13 12 11 10 9 9 8 7 6 6 6 5 5 5 5 5 5 4 4 4 3 2 3 4
3 2 2 3 3 2 2 3 6 7 7 5 7 7 5 7 10 13 13 12 11 11 8 6 6 8 11 10 9 9 8 7 6 6 5 5 5 4 4 4 3 3 3 3 2 1 2 2 3
4 3 2 2 2 4 2 3 4 8 5 5 6 8 7 8 11 13 11 10 10 8 7 6 5 4 4 5 8 8 7 6 6 5 5 5 4 3 3 3 3 2 2 2 1 1 1 1 2
3 3 3 4 3 3 2 4 2 4 7 3 3 6 10 14 15 14 11 8 7 8 5 6 5 4 4 4 6 6 6 5 5 4 4 3 1 1 1 2 3 3 2 2 1 1 1 0 1
4 4 8 6 4 3 2 3 4 5 6 5 6 8 14 14 14 14 13 11 9 9 7 5 6 5 4 4 3 2 3 2 2 1 1 1 1 1 1 2 3 3 2 2 2 2 2 0 1
4 7 6 5 4 3 2 2 2 8 5 8 12 14 14 13 12 12 11 11 11 10 9 7 6 6 5 3 3 2 1 1 1 1 1 1 1 0 0 0 1 1 1 1 2 1 1 1 1
3 7 6 5 4 3 3 3 2 5 8 11 14 17 14 13 12 12 12 11 9 9 9 8 7 6 5 4 3 3 2 2 2 2 2 1 1 1 1 0 0 0 0 0 0 0 1 1 2
4 6 5 6 3 4 3 3 4 4 8 11 12 13 13 12 9 8 10 10 10 9 9 8 7 6 5 4 2 3 2 2 2 2 1 2 1 1 1 1 0 0 0 1 0 0 1 2 2
6 5 4 4 3 3 3 2 4 6 11 13 13 11 11 11 10 8 8 8 8 8 8 8 7 6 5 4 3 2 2 2 1 1 2 2 2 1 1 1 1 0 0 1 1 1 2 1 2
3 4 5 4 3 3 4 2 3 9 12 12 11 11 10 9 9 10 9 9 9 8 7 8 8 6 5 4 3 3 2 2 2 1 1 1 1 1 1 1 1 1 0 1 1 1 2 2 2
4 3 3 7 2 2 7 3 4 9 13 11 10 10 9 7 8 9 9 8 8 8 7 7 7 7 5 4 3 2 2 2 1 1 1 1 1 1 1 1 1 1 1 1 2 2 2 1 1
4 1 4 7 3 1 4 4 5 7 12 12 10 10 9 8 6 7 9 9 8 9 8 6 6 6 5 4 3 3 2 2 1 1 1 1 1 1 1 1 0 1 1 1 1 2 2 1 1
4 2 4 6 4 1 2 3 5 6 10 11 11 9 9 9 8 8 9 9 8 8 8 7 6 5 4 3 2 2 2 1 1 1 1 0 0 1 1 1 1 1 1 1 1 2 1 1 1
4 3 6 9 7 2 3 3 5 6 7 8 8 9 8 7 6 7 8 9 8 7 7 6 6 4 4 2 2 2 1 1 0 0 0 0 0 1 1 1 1 1 2 2 1 2 2 1 1
5 6 7 7 4 2 3 2 4 6 9 10 10 9 8 6 5 7 8 7 8 8 7 7 6 5 4 3 3 2 2 1 1 1 0 0 1 0 1 1 1 1 1 1 1 2 1 1 1
7 6 6 5 4 3 3 2 1 1 3 5 8 7 8 10 10 9 8 7 8 8 8 7 6 6 5 4 2 2 1 1 0 0 0 1 1 1 1 2 2 1 1 1 1 2 2 1 0
7 8 6 3 1 2 2 2 4 1 1 3 5 6 7 8 8 8 8 8 8 8 8 7 7 6 5 4 4 4 3 2 3 2 2 1 1 1 1 2 2 2 1 1 2 2 2 2 1
7 5 2 1 2 1 3 2 5 0 1 4 5 8 9 8 9 9 9 9 8 7 7 7 6 5 5 5 5 5 3 3 1 1 1 1 1 2 2 2 2 2 1 1 1 1 2 2 2
2 4 6 6 5 2 3 2 5 4 6 5 4 7 8 8 8 7 7 6 6 5 6 6 6 5 5 5 4 5 4 3 2 2 2 2 1 2 2 2 2 2 2 2 1 1 2 1 2
4 6 5 5 5 4 3 2 6 6 5 7 7 7 6 5 6 6 6 6 5 6 6 6 6 5 5 5 4 5 4 4 4 4 3 2 2 2 2 2 2 2 2 2 1 1 1 2 2
2 8 8 5 4 4 2 2 5 4 1 3 5 6 6 4 5 5 5 5 5 5 6 6 6 5 5 5 5 4 4 3 3 3 3 3 3 3 3 2 3 2 2 2 2 1 1 1 2
2 2 7 7 2 0 2 3 5 3 3 3 5 7 5 5 4 4 4 4 5 4 4 4 5 5 4 4 4 3 3 3 3 3 2 2 2 2 2 2 2 2 2 2 2 1 1 1 1
4 5 6 5 4 1 2 2 3 2 1 2 5 5 4 4 5 5 4 3 3 3 3 4 3 4 3 3 3 3 2 2 2 2 2 2 2 2 3 3 2 2 2 2 2 1 1 1 1
3 3 4 4 5 6 2 5 5 6 5 5 5 5 5 5 5 5 4 3 3 3 2 2 3 3 3 3 2 2 2 2 1 1 2 2 2 2 3 3 3 3 2 2 2 2 1 1 0
3 3 5 4 2 4 4 5 4 4 3 5 5 4 4 4 4 5 5 4 4 3 2 2 3 3 3 3 3 2 2 2 2 2 2 1 2 2 4 3 3 3 3 2 3 2 2 2 2
Wind_Direction
186 173 146 70 51 46 313 247 146 93 63 68 86 94 93 82 118 140 147 142 138 142 146 139 131 128 124 119 114 110 106 105 101 98 94 93 92 90 90 91 99 110 115 115 111 113 115 113 112
183 169 81 56 76 44 297 216 102 113 137 119 88 91 91 80 98 117 129 144 141 140 143 140 135 131 127 123 117 113 109 108 105 102 97 94 92 91 90 90 93 102 111 115 113 114 115 113 112
214 175 99 74 109 179 210 170 132 120 125 110 92 72 81 113 121 134 148 145 138 137 141 146 138 135 131 128 122 117 112 108 106 103 98 95 93 93 93 93 95 103 110 113 115 114 113 113 114
106 59 47 68 257 239 197 187 152 126 86 85 98 73 62 104 131 136 140 142 137 139 145 149 141 139 135 132 126 121 116 113 109 106 103 100 98 96 94 93 96 111 109 109 110 109 108 110 114
78 76 51 351 272 265 207 190 148 124 108 87 89 91 69 62 115 129 139 142 140 142 148 150 144 142 140 135 130 127 123 120 117 113 110 109 107 101 97 90 91 106 106 109 110 104 107 112 114
55 73 75 269 271 266 136 145 126 110 110 102 102 107 96 121 125 137 140 142 142 145 149 149 148 145 144 140 137 134 130 127 126 123 119 118 116 114 111 106 97 103 106 107 111 103 101 118 122
122 106 203 245 282 292 209 172 135 125 123 133 130 108 121 138 138 137 135 137 138 142 145 146 150 148 148 146 143 142 141 138 137 134 128 124 127 130 129 127 122 120 122 110 114 97 100 120 133
155 98 304 273 254 268 208 135 138 130 132 136 122 129 154 164 136 129 129 132 133 137 143 145 146 147 149 150 152 153 153 151 148 146 142 140 136 137 145 145 152 155 151 133 127 52 31 111 133
119 87 249 240 223 251 135 116 137 116 117 119 106 143 154 145 132 130 128 128 134 138 144 147 149 150 149 158 164 159 157 155 153 153 152 151 140 151 162 167 172 185 186 203 240 282 313 306 120
122 169 230 225 212 214 189 149 145 115 110 103 103 115 133 138 137 142 146 148 151 155 159 156 157 157 159 165 150 152 155 153 147 145 145 139 138 199 186 189 187 204 218 236 262 268 301 254 102
182 205 232 252 229 199 191 189 137 130 145 162 154 148 147 143 142 149 153 156 161 162 162 164 165 165 165 156 151 161 151 149 165 182 181 167 155 179 196 266 278 276 271 300 308 306 342 101 118
241 250 232 239 240 208 207 188 151 155 180 171 158 153 150 150 158 158 159 160 156 156 162 164 166 161 163 154 157 161 159 162 175 194 190 168 160 170 195 191 245 265 330 64 359 103 82 100 117
263 262 260 239 221 221 207 181 145 157 152 150 148 147 151 155 155 152 153 154 152 155 161 162 157 158 159 147 154 152 162 165 175 175 187 172 170 185 187 185 186 205 152 146 175 111 81 81 102
255 267 276 266 233 222 178 184 113 167 145 141 145 150 152 154 152 143 141 145 150 153 157 156 153 154 144 143 149 151 158 152 148 165 186 180 166 158 159 165 179 213 197 182 151 127 101 97 106
279 314 318 283 240 218 120 35 174 168 145 145 149 150 152 153 150 157 159 155 154 151 152 152 150 143 139 144 153 147 150 144 142 165 178 171 150 140 145 143 166 231 190 138 112 96 83 81 87
353 5 309 285 262 246 117 184 215 158 144 145 150 152 152 156 157 161 155 151 151 146 146 153 148 142 141 141 140 135 141 141 150 146 128 144 146 144 136 134 188 211 125 116 115 109 93 74 70
4 303 274 290 280 190 126 180 196 159 145 149 154 157 155 158 161 160 157 153 152 148 146 142 134 138 141 137 125 125 126 134 150 142 131 143 143 131 130 139 161 131 115 117 131 109 114 111 78
250 262 286 275 281 132 156 181 174 158 149 154 155 156 162 167 178 168 158 152 150 145 141 137 133 133 130 120 98 90 90 107 125 135 142 130 146 126 125 130 119 126 115 109 112 115 103 128 133
230 265 274 271 273 182 187 164 173 152 135 146 156 160 164 171 172 155 153 153 148 139 137 139 140 144 135 127 131 132 154 171 163 190 149 144 138 146 136 132 126 130 141 164 153 127 110 108 109
246 260 270 287 301 128 146 161 182 159 159 165 166 166 163 152 148 154 154 154 156 151 150 151 155 158 161 166 170 171 171 188 199 222 173 197 159 180 164 155 149 141 135 128 130 128 132 174 138
257 233 242 256 337 36 105 17 327 216 151 155 152 158 158 164 162 158 158 159 161 162 165 166 169 167 170 163 140 120 80 53 25 326 267 254 188 170 175 163 164 167 158 177 186 163 158 181 246
250 241 219 220 77 299 102 198 274 247 110 156 156 158 169 166 163 165 167 167 175 178 170 166 167 168 171 160 159 157 161 186 210 212 222 242 225 210 188 176 170 174 167 188 209 172 168 159 200
232 240 214 197 134 33 11 129 276 349 210 233 197 175 175 172 173 176 174 173 177 176 171 168 165 170 175 173 175 173 182 199 200 195 197 228 246 235 210 181 174 176 180 186 177 146 153 163 169
165 53 34 47 70 40 265 148 266 237 207 204 189 178 181 178 179 178 167 152 156 161 163 163 164 176 179 177 178 178 180 180 166 183 198 221 241 247 239 182 173 185 189 186 180 167 153 163 145
72 78 34 5 20 259 266 154 247 259 199 172 165 166 168 168 164 160 157 155 160 160 164 172 172 178 183 179 182 185 183 178 183 191 197 202 222 236 234 197 184 195 198 183 162 150 157 152 138
176 134 152 183 208 269 324 228 269 281 190 144 136 132 123 125 139 146 152 152 158 166 170 177 177 178 181 183 190 187 180 181 196 196 193 202 216 226 215 188 184 183 175 166 146 140 154 130 138
143 164 164 137 144 99 294 302 317 14 47 83 108 111 125 132 133 125 122 139 147 151 161 173 180 175 183 190 190 188 185 183 193 197 192 203 217 213 179 172 171 170 157 156 153 153 171 135 155
148 145 91 107 138 211 282 261 244 235 146 109 109 116 132 127 115 112 123 142 146 149 145 149 159 177 183 185 187 177 183 195 197 188 194 198 204 187 150 153 154 149 143 144 142 150 172 155 207
42 65 99 116 144 151 198 266 240 197 180 154 145 141 133 134 142 142 137 141 129 110 117 148 175 173 168 177 185 171 177 179 167 185 217 209 190 169 160 160 156 159 163 161 151 162 147 152 225
128 140 130 136 208 156 156 257 284 172 162 141 142 139 124 125 144 148 139 130 127 139 155 160 181 177 181 179 174 182 176 168 180 205 231 218 188 172 168 161 159 168 168 169 169 179 177 176 200